SCP
0 0 0 0 -0 -0 -0 -0 -0 -0 0 -0 -0 -0 -0 -0 -0 -0 0 0 -0 -0 -0 -0 -0 -0 -0 -0 -0 -0 -0 -0 -0 -0 -0 -0 -0 -0 -0 -0 -0 -0 -0
0 0 0 0 -0 -0 -0 -0 -0 -0 -0 -0 -0 -0 -0 -0 -0 -0 -0 -0 -0 -0 -0 0 0 -0 -0 -0 -0 -0 -0 -0 -0 -0 -0 -0 -0 -0 -0 -0 -0 -0 -0
-0 -0 -0 -0 -0 -0 -0 -0 -0 -0 -0 -0 -0 -0 -0 -0 -0 -0 -0 -0 -0 -0 -0 -0 -0 -0 -0 -0 -0 -0 -0 -0 -0 -0 -0 -0 -0 -0 -0 -0 -0 -0 -0
-0 0 -0 -0 -0 -0 -0 -0 -0 -0 -0 -0 -0 -0 -0 -0 -0 -0 -0 -0 -0 -0 -0 -0 -0 -0 -0 -0 -0 -0 -0 -0 -0 -0 -0 -0 -0 -0 -0 -0 -0 -0 -0
-0 0 -0 -0 -0 -0 -0 -0 -0 -0 -0 -0 -0 -0 -0 -0 -0 -0 -0 -0 -0 -0 -0 -0 -0 -0 -0 -0 -0 -0 -0 -0 -0 -0 -0 -0 -0 -0 -0 -0 -0 -0 -0
-0 -0 -0 -0 -0 -0 -0 -0 -0 -0 -0 -0 -0 -0 -0 -0 -0 -0 -0 -0 -0 -0 -0 -0 -0 -0 -0 -0 -0 -0 -0 -0 -0 -0 -0 -0 -0 -0 -0 -0 -0 -0 -0
-0 -0 -0 -0 -0 -0 -0 -0 -0 -0 -0 -0 -0 -0 -0 -0 -0 -0 -0 -0 -0 -0 -0 -0 -0 -0 -0 -0 -0 -0 -0 -0 -0 -0 -0 -0 -0 -0 -0 -0 -0 -0 -0
-0 -0 -0 -0 -0 -0 -0 -0 -0 -0 -0 -0 -0 -0 -0 -0 -0 -0 -0 -0 -0 -0 -0 -0 -0 -0 -0 -0 -0 -0 -0 -0 -0 -0 -0 -0 -0 -0 -0 -0 -0 -0 -0
-0 -0 -0 -0 -0 -0 -0 -0 -0 -0 -0 -0 -0 -0 -0 -0 -0 -0 -0 -0 -0 -0 -0 -0 -0 -0 -0 -0 -0 -0 -0 -0 -0 0 0 0 -0 -0 -0 -0 -0 -0 -0
-0 -0 -0 -0 -0 -0 -0 -0 -0 -0 -0 -0 -0 -0 -0 -0 -0 -0 -0 -0 -0 -0 -0 -0 -0 -0 -0 -0 -0 -0 -0 -0 -0 0 0 0 -0 -0 -0 -0 -0 -0 -0
0 0 0 -0 -0 -0 0 -0 -0 -0 -0 -0 -0 -0 0 0 0 -0 -0 -0 -0 -0 -0 -0 -0 -0 -0 -0 -0 -0 -0 0 0 0 0 -0 -0 -0 -0 -0 -0 0 0
0 0 0 0 0 0 0 0 0 0 0 0 0 0 0 0 0 0 -0 -0 -0 -0 -0 -0 -0 -0 0 0 0 0 0 0 0 0 0 0 -0 -0 -0 -0 -0 -0 -0
0 0 0 0 0 0 0 0 0 0 0 0 0 0 0 0 0 0 0 0 0 0 0 0 0 0 0 0 0 0 0 0 0 0 0 0 -0 -0 -0 -0 -0 -0 -0
0 0 0 0 0 0 0 0 0 0 0 0 0 0 0 0 0 0 0 0 0 0 0 0 0 0 0 0 0 0 0 0 0 0 0 -0 -0 -0 -0 -0 -0 -0 -0
0 0 0 0 0 0 0 0 0 0 0 0 0 0 0 0 0 0 0 0 0 0 0 0 0 0 0 0 0 0 0 0 0 0 0 0 -0 -0 0 0 0 0 0
0 0 0 0 0 0 0 0 0 0 0 0 0 0 0 0 0 0 0 0 0 0 0 0 0 0 0 0 0 0 0 0 0 0 0 0 0 0 0 0 0 0 0
0 0 0 0 0 0 0 0 0 0 0 0 0 0 0 0 0 0 0 0 0 0 0 0 0 0 0 0 0 0 0 0 0 0 0 0 0 0 0 0 0 0 0
0 0 0 0 0 0 0 0 0 0 0 0 0 0 0 0 0 0 0 0 0 0 0 0 0 0 0 0 0 0 0 0 0 0 0 0 0 0 0 0 0 0 0
0 0 0 0 0 0 0 0 0 0 0 0 0 0 0 0 0 0 0 0 0 0 0 0 0 0 0 0 0 0 0 0 0 0 0 0 0 0 0 0 0 0 0
0 0 0 0 0 0 0 0 0 0 0 0 0 0 0 0 0 0 0 0 0 0 0 0 0 0 0 0 0 0 0 0 0 0 0 0 0 0 0 0 0 0 0
0 0 0 0 0 0 0 0 0 0 0 0 0 0 0 0 0 0 0 0 0 0 0 0 0 0 0 0 0 0 0 0 0 0 0 0 0 0 0 0 0 0 0
0 0 0 0 0 0 0 0 0 0 0 0 0 0 0 0 0 0 0 0 0 0 0 0 0 0 0 0 0 0 0 0 0 0 0 0 0 0 0 0 0 0 0
0 0 0 0 0 0 0 0 0 0 0 0 0 0 0 0 0 0 0 0 0 0 0 0 0 0 0 0 0 0 0 0 0 0 0 0 0 0 0 0 0 0 0
0 0 0 0 0 0 0 0 0 0 0 0 0 0 0 0 0 0 0 0 0 0 0 0 0 0 0 0 0 0 0 0 0 0 0 0 0 0 0 0 0 0 0
0 0 0 0 0 0 0 0 0 0 0 0 0 0 0 0 0 0 0 0 0 0 0 0 0 0 0 0 0 0 0 0 0 0 0 0 0 0 0 0 0 0 0
0 0 0 0 0 0 0 0 0 0 0 0 0 0 0 0 0 0 0 0 0 0 0 0 0 0 0 0 0 0 0 0 0 0 0 0 0 0 0 0 0 0 0
Wind_Speed_500mb
36 38 37 31 28 28 25 23 22 24 25 24 26 27 28 27 26 27 28 27 28 28 31 32 29 33 32 33 37 38 35 35 35 32 27 25 25 24 25 27 30 38 41
38 37 35 29 27 27 26 23 21 20 19 24 27 28 30 30 28 27 29 28 28 27 30 27 32 32 31 33 35 38 38 35 33 33 31 30 29 26 22 19 20 25 32
36 36 35 32 29 27 25 21 18 16 17 24 26 28 30 32 32 30 29 27 26 26 26 23 29 27 28 30 33 36 37 37 36 35 34 35 35 32 30 27 24 21 20
37 36 34 30 27 24 21 19 16 14 14 20 24 25 28 31 32 30 28 26 24 24 23 25 26 24 25 27 30 30 31 34 34 33 35 36 37 35 34 32 31 27 24
39 37 34 30 27 24 21 20 16 13 12 17 19 23 27 30 30 28 26 25 23 22 21 23 23 22 22 24 25 26 29 32 31 32 35 38 39 36 34 33 33 30 27
39 36 33 31 28 24 20 17 15 12 9 13 16 19 22 25 25 24 23 24 24 22 22 22 21 20 20 20 22 24 27 29 28 32 35 36 39 36 34 32 32 29 27
41 35 32 30 28 25 21 18 16 13 10 12 13 17 19 22 24 24 22 22 22 22 23 23 21 21 20 19 21 23 26 26 26 30 34 39 38 37 38 33 33 33 29
38 36 32 29 28 24 21 19 16 14 13 13 13 14 15 18 22 24 23 23 21 20 21 21 20 20 20 20 21 22 24 24 24 28 32 38 45 44 42 44 41 40 37
33 29 30 29 27 24 21 21 18 17 15 15 13 11 11 15 20 24 23 22 20 20 19 19 19 20 19 19 20 22 23 23 24 29 34 38 40 39 41 41 43 43 48
41 41 37 34 32 29 25 22 21 19 17 17 17 13 11 14 18 20 22 23 21 19 19 18 17 17 17 18 21 22 22 22 26 29 37 38 37 42 36 38 36 38 42
44 43 42 39 35 30 25 22 19 19 19 18 18 14 12 11 11 10 16 20 20 19 20 21 19 18 16 18 21 21 20 25 24 33 42 47 46 46 44 45 45 43 37
47 44 43 42 36 34 32 29 25 24 22 17 16 15 11 7 7 3 5 12 13 15 17 18 19 19 18 21 23 22 25 24 23 30 42 42 41 43 42 46 48 48 48
47 47 43 44 41 41 40 34 33 32 27 26 23 19 18 15 13 10 6 2 6 7 8 12 16 16 15 17 18 19 21 20 22 26 31 32 42 49 52 52 50 46 40
51 49 46 43 44 45 44 42 40 37 33 33 29 27 24 23 21 20 15 10 7 3 1 7 9 10 10 12 14 15 17 21 25 27 27 23 28 38 50 54 54 54 55
53 53 53 50 44 52 46 49 49 38 35 35 34 33 35 30 26 24 22 18 15 9 8 9 10 8 9 11 13 13 17 21 22 24 26 25 29 31 35 46 48 51 51
56 55 53 52 50 51 54 54 55 51 48 46 44 41 42 37 32 29 28 24 25 15 12 14 15 10 14 13 13 15 18 20 21 23 24 25 26 26 26 26 38 42 43
57 55 55 54 54 54 55 57 57 57 53 52 53 50 50 42 41 35 33 29 29 24 19 24 21 17 16 19 14 19 19 20 20 21 22 21 20 22 23 24 25 29 33
60 59 56 55 56 57 58 59 58 59 60 56 53 57 55 50 48 39 41 40 36 32 26 26 26 25 28 25 25 25 22 21 20 18 16 16 19 22 23 27 27 27 27
64 62 61 60 59 60 60 61 61 61 64 65 58 58 59 55 48 54 49 48 48 39 31 29 28 25 30 33 32 29 25 20 15 14 13 17 21 24 25 25 24 23 25
67 66 65 63 61 59 57 58 60 60 61 64 59 61 54 59 59 56 47 51 46 39 35 33 32 36 33 38 38 33 26 19 14 11 14 18 20 22 24 24 26 30 32
72 71 70 68 64 62 60 60 60 62 63 63 56 56 56 52 57 58 55 55 56 37 36 39 42 43 48 44 40 37 29 19 12 11 13 15 16 20 22 24 26 28 30
77 74 73 71 69 66 65 62 62 62 63 58 55 53 61 61 65 69 52 66 50 48 47 49 53 57 53 51 41 30 25 17 13 9 8 9 13 17 18 20 23 26 28
81 80 77 75 72 70 70 66 64 63 60 62 67 63 62 56 66 58 64 62 46 50 47 53 55 55 55 55 45 22 17 16 29 14 6 3 7 10 13 16 19 23 27
81 80 81 79 75 73 73 70 68 72 71 72 70 66 65 64 68 59 53 55 53 50 50 53 55 51 44 46 42 35 22 16 21 22 16 7 1 5 9 12 16 20 25
71 80 84 83 80 77 74 70 66 68 65 67 67 70 68 69 66 62 62 55 53 53 53 56 58 54 45 39 37 33 29 27 25 19 25 20 9 2 4 8 10 17 22
51 63 77 83 85 81 76 72 67 67 70 67 72 72 75 73 71 59 56 59 55 58 59 57 54 49 43 37 35 30 27 28 27 22 21 25 16 10 7 3 6 13 18
Wind_Direction_500mb
157 157 156 157 150 142 136 126 113 97 89 81 75 71 70 70 77 83 83 84 87 86 85 87 81 82 81 73 72 70 76 73 72 71 74 75 77 80 77 72 74 75 70
157 159 159 158 151 147 139 130 114 104 94 83 77 73 69 69 74 81 83 83 83 85 87 85 79 82 75 74 70 69 69 68 67 66 71 77 77 76 76 77 77 79 76
161 158 157 161 156 152 143 138 124 107 89 80 80 77 73 73 75 81 81 80 79 80 83 80 83 83 76 72 70 67 67 65 67 70 74 79 76 75 74 74 74 71 71
167 163 162 163 162 155 149 145 133 111 93 81 80 76 74 71 73 76 82 86 85 85 88 86 86 82 80 75 69 65 62 64 69 72 74 75 75 73 73 72 72 71 69
171 170 168 169 168 163 157 153 145 131 102 87 83 80 77 72 72 77 81 84 86 90 92 92 96 92 85 79 72 66 68 72 70 72 73 71 70 68 70 71 70 68 66
172 174 175 175 174 171 166 159 155 144 117 100 90 87 78 71 71 76 82 88 92 95 98 100 103 103 93 83 77 77 78 77 76 77 77 75 72 69 73 74 72 71 68
173 175 179 179 178 175 171 167 164 160 147 126 112 99 79 73 72 76 82 84 86 89 93 99 104 103 99 90 84 82 80 78 77 78 77 71 65 64 61 65 65 63 66
177 178 183 185 184 185 183 177 176 171 168 151 130 108 89 73 70 74 84 88 91 93 91 96 100 96 94 96 92 85 81 78 76 76 76 75 73 61 58 54 52 54 54
177 192 191 190 188 191 191 185 182 178 181 166 154 143 106 83 85 78 85 89 92 93 96 95 95 101 104 100 95 88 85 82 79 76 74 71 66 73 78 74 67 58 54
182 189 200 196 196 196 196 195 191 189 186 176 171 163 122 97 95 85 82 79 81 88 92 92 91 90 91 88 85 83 82 82 79 77 69 62 57 59 63 66 70 65 67
190 195 201 203 202 201 201 202 210 211 199 189 181 169 132 101 95 91 81 76 75 78 84 87 88 89 87 88 86 80 79 78 81 75 66 70 68 65 61 59 58 60 59
194 194 202 206 204 202 207 210 219 220 225 216 206 186 199 184 186 173 119 69 67 77 84 87 87 84 84 85 85 85 78 80 78 82 91 81 76 70 67 67 65 64 59
200 200 201 205 210 208 207 208 214 221 221 224 228 226 219 213 221 211 217 211 28 52 86 92 89 88 85 87 86 79 79 74 75 81 77 80 82 72 70 69 70 71 73
208 209 215 207 210 215 215 216 216 221 223 221 235 231 225 233 222 219 221 223 243 252 223 124 119 106 108 103 93 89 83 81 82 83 85 75 72 73 70 67 63 62 62
217 219 223 227 219 216 216 219 220 225 231 225 228 234 231 233 228 228 226 220 211 218 237 195 171 147 138 126 115 98 92 93 91 86 83 78 74 70 65 66 65 61 57
221 224 228 233 236 223 221 220 224 222 226 225 228 232 239 235 234 237 231 230 224 204 232 209 196 185 161 143 131 116 109 103 96 91 85 78 71 65 60 57 61 60 53
229 230 233 235 237 235 233 227 223 223 221 226 230 230 235 239 241 238 229 229 221 213 223 219 204 187 178 155 157 136 124 112 104 95 87 77 67 60 55 48 39 31 31
234 235 236 238 238 237 235 236 233 223 223 223 227 230 236 235 237 244 231 232 218 221 227 218 211 190 173 169 165 143 133 120 105 91 80 72 64 57 46 42 36 28 22
236 237 238 240 240 239 238 236 235 233 228 227 226 230 232 233 237 241 231 233 223 219 210 212 203 199 187 172 160 145 134 126 117 100 86 68 57 49 44 41 37 34 34
235 236 239 241 239 237 234 233 233 230 228 224 224 225 227 234 231 236 229 227 210 214 211 210 208 189 191 175 159 147 139 135 122 102 68 58 53 46 38 28 22 23 23
236 236 238 240 238 233 229 228 227 227 226 225 224 223 226 231 232 232 226 235 212 219 226 211 201 196 180 180 171 151 139 134 124 92 73 55 43 30 22 17 13 12 12
238 238 237 238 237 235 234 234 231 227 227 228 211 219 233 229 231 228 225 210 217 224 222 204 201 188 187 183 180 165 149 147 146 118 83 46 26 22 12 7 7 7 6
239 238 238 238 237 236 235 233 228 223 223 218 219 219 219 230 219 218 215 218 228 233 216 203 202 204 194 190 189 185 166 185 177 164 154 56 19 4 1 7 3 5 7
246 241 239 238 237 235 235 234 232 230 229 224 217 220 224 222 226 223 224 232 235 214 208 204 199 204 211 203 200 206 210 199 179 179 194 193 273 353 4 3 6 6 7
248 244 240 237 236 235 234 234 232 233 226 224 221 216 221 222 220 220 229 232 213 208 201 199 197 199 205 213 216 215 208 206 208 197 191 193 191 227 325 356 359 0 2
243 239 239 236 236 236 232 232 230 232 223 220 222 222 215 217 215 216 221 210 207 204 198 199 200 201 202 205 209 212 218 211 215 209 188 183 193 204 222 279 346 351 358
Wind_Speed_850mb
36 38 37 31 28 28 25 23 22 24 25 24 26 27 28 27 26 27 28 27 28 28 31 32 29 33 32 33 37 38 35 35 35 32 27 25 25 24 25 27 30 38 41
38 37 35 29 27 27 26 23 21 20 19 24 27 28 30 30 28 27 29 28 28 27 30 27 32 32 31 33 35 38 38 35 33 33 31 30 29 26 22 19 20 25 32
36 36 35 32 29 27 25 21 18 16 17 24 26 28 30 32 32 30 29 27 26 26 26 23 29 27 28 30 33 36 37 37 36 35 34 35 35 32 30 27 24 21 20
37 36 34 30 27 24 21 19 16 14 14 20 24 25 28 31 32 30 28 26 24 24 23 25 26 24 25 27 30 30 31 34 34 33 35 36 37 35 34 32 31 27 24
39 37 34 30 27 24 21 20 16 13 12 17 19 23 27 30 30 28 26 25 23 22 21 23 23 22 22 24 25 26 29 32 31 32 35 38 39 36 34 33 33 30 27
39 36 33 31 28 24 20 17 15 12 9 13 16 19 22 25 25 24 23 24 24 22 22 22 21 20 20 20 22 24 27 29 28 32 35 36 39 36 34 32 32 29 27
41 35 32 30 28 25 21 18 16 13 10 12 13 17 19 22 24 24 22 22 22 22 23 23 21 21 20 19 21 23 26 26 26 30 34 39 38 37 38 33 33 33 29
38 36 32 29 28 24 21 19 16 14 13 13 13 14 15 18 22 24 23 23 21 20 21 21 20 20 20 20 21 22 24 24 24 28 32 38 45 44 42 44 41 40 37
33 29 30 29 27 24 21 21 18 17 15 15 13 11 11 15 20 24 23 22 20 20 19 19 19 20 19 19 20 22 23 23 24 29 34 38 40 39 41 41 43 43 48
41 41 37 34 32 29 25 22 21 19 17 17 17 13 11 14 18 20 22 23 21 19 19 18 17 17 17 18 21 22 22 22 26 29 37 38 37 42 36 38 36 38 42
44 43 42 39 35 30 25 22 19 19 19 18 18 14 12 11 11 10 16 20 20 19 20 21 19 18 16 18 21 21 20 25 24 33 42 47 46 46 44 45 45 43 37
47 44 43 42 36 34 32 29 25 24 22 17 16 15 11 7 7 3 5 12 13 15 17 18 19 19 18 21 23 22 25 24 23 30 42 42 41 43 42 46 48 48 48
47 47 43 44 41 41 40 34 33 32 27 26 23 19 18 15 13 10 6 2 6 7 8 12 16 16 15 17 18 19 21 20 22 26 31 32 42 49 52 52 50 46 40
51 49 46 43 44 45 44 42 40 37 33 33 29 27 24 23 21 20 15 10 7 3 1 7 9 10 10 12 14 15 17 21 25 27 27 23 28 38 50 54 54 54 55
53 53 53 50 44 52 46 49 49 38 35 35 34 33 35 30 26 24 22 18 15 9 8 9 10 8 9 11 13 13 17 21 22 24 26 25 29 31 35 46 48 51 51
56 55 53 52 50 51 54 54 55 51 48 46 44 41 42 37 32 29 28 24 25 15 12 14 15 10 14 13 13 15 18 20 21 23 24 25 26 26 26 26 38 42 43
57 55 55 54 54 54 55 57 57 57 53 52 53 50 50 42 41 35 33 29 29 24 19 24 21 17 16 19 14 19 19 20 20 21 22 21 20 22 23 24 25 29 33
60 59 56 55 56 57 58 59 58 59 60 56 53 57 55 50 48 39 41 40 36 32 26 26 26 25 28 25 25 25 22 21 20 18 16 16 19 22 23 27 27 27 27
64 62 61 60 59 60 60 61 61 61 64 65 58 58 59 55 48 54 49 48 48 39 31 29 28 25 30 33 32 29 25 20 15 14 13 17 21 24 25 25 24 23 25
67 66 65 63 61 59 57 58 60 60 61 64 59 61 54 59 59 56 47 51 46 39 35 33 32 36 33 38 38 33 26 19 14 11 14 18 20 22 24 24 26 30 32
72 71 70 68 64 62 60 60 60 62 63 63 56 56 56 52 57 58 55 55 56 37 36 39 42 43 48 44 40 37 29 19 12 11 13 15 16 20 22 24 26 28 30
77 74 73 71 69 66 65 62 62 62 63 58 55 53 61 61 65 69 52 66 50 48 47 49 53 57 53 51 41 30 25 17 13 9 8 9 13 17 18 20 23 26 28
81 80 77 75 72 70 70 66 64 63 60 62 67 63 62 56 66 58 64 62 46 50 47 53 55 55 55 55 45 22 17 16 29 14 6 3 7 10 13 16 19 23 27
81 80 81 79 75 73 73 70 68 72 71 72 70 66 65 64 68 59 53 55 53 50 50 53 55 51 44 46 42 35 22 16 21 22 16 7 1 5 9 12 16 20 25
71 80 84 83 80 77 74 70 66 68 65 67 67 70 68 69 66 62 62 55 53 53 53 56 58 54 45 39 37 33 29 27 25 19 25 20 9 2 4 8 10 17 22
51 63 77 83 85 81 76 72 67 67 70 67 72 72 75 73 71 59 56 59 55 58 59 57 54 49 43 37 35 30 27 28 27 22 21 25 16 10 7 3 6 13 18
Wind_Direction_850mb
157 157 156 157 150 142 136 126 113 97 89 81 75 71 70 70 77 83 83 84 87 86 85 87 81 82 81 73 72 70 76 73 72 71 74 75 77 80 77 72 74 75 70
157 159 159 158 151 147 139 130 114 104 94 83 77 73 69 69 74 81 83 83 83 85 87 85 79 82 75 74 70 69 69 68 67 66 71 77 77 76 76 77 77 79 76
161 158 157 161 156 152 143 138 124 107 89 80 80 77 73 73 75 81 81 80 79 80 83 80 83 83 76 72 70 67 67 65 67 70 74 79 76 75 74 74 74 71 71
167 163 162 163 162 155 149 145 133 111 93 81 80 76 74 71 73 76 82 86 85 85 88 86 86 82 80 75 69 65 62 64 69 72 74 75 75 73 73 72 72 71 69
171 170 168 169 168 163 157 153 145 131 102 87 83 80 77 72 72 77 81 84 86 90 92 92 96 92 85 79 72 66 68 72 70 72 73 71 70 68 70 71 70 68 66
172 174 175 175 174 171 166 159 155 144 117 100 90 87 78 71 71 76 82 88 92 95 98 100 103 103 93 83 77 77 78 77 76 77 77 75 72 69 73 74 72 71 68
173 175 179 179 178 175 171 167 164 160 147 126 112 99 79 73 72 76 82 84 86 89 93 99 104 103 99 90 84 82 80 78 77 78 77 71 65 64 61 65 65 63 66
177 178 183 185 184 185 183 177 176 171 168 151 130 108 89 73 70 74 84 88 91 93 91 96 100 96 94 96 92 85 81 78 76 76 76 75 73 61 58 54 52 54 54
177 192 191 190 188 191 191 185 182 178 181 166 154 143 106 83 85 78 85 89 92 93 96 95 95 101 104 100 95 88 85 82 79 76 74 71 66 73 78 74 67 58 54
182 189 200 196 196 196 196 195 191 189 186 176 171 163 122 97 95 85 82 79 81 88 92 92 91 90 91 88 85 83 82 82 79 77 69 62 57 59 63 66 70 65 67
190 195 201 203 202 201 201 202 210 211 199 189 181 169 132 101 95 91 81 76 75 78 84 87 88 89 87 88 86 80 79 78 81 75 66 70 68 65 61 59 58 60 59
194 194 202 206 204 202 207 210 219 220 225 216 206 186 199 184 186 173 119 69 67 77 84 87 87 84 84 85 85 85 78 80 78 82 91 81 76 70 67 67 65 64 59
200 200 201 205 210 208 207 208 214 221 221 224 228 226 219 213 221 211 217 211 28 52 86 92 89 88 85 87 86 79 79 74 75 81 77 80 82 72 70 69 70 71 73
208 209 215 207 210 215 215 216 216 221 223 221 235 231 225 233 222 219 221 223 243 252 223 124 119 106 108 103 93 89 83 81 82 83 85 75 72 73 70 67 63 62 62
217 219 223 227 219 216 216 219 220 225 231 225 228 234 231 233 228 228 226 220 211 218 237 195 171 147 138 126 115 98 92 93 91 86 83 78 74 70 65 66 65 61 57
221 224 228 233 236 223 221 220 224 222 226 225 228 232 239 235 234 237 231 230 224 204 232 209 196 185 161 143 131 116 109 103 96 91 85 78 71 65 60 57 61 60 53
229 230 233 235 237 235 233 227 223 223 221 226 230 230 235 239 241 238 229 229 221 213 223 219 204 187 178 155 157 136 124 112 104 95 87 77 67 60 55 48 39 31 31
234 235 236 238 238 237 235 236 233 223 223 223 227 230 236 235 237 244 231 232 218 221 227 218 211 190 173 169 165 143 133 120 105 91 80 72 64 57 46 42 36 28 22
236 237 238 240 240 239 238 236 235 233 228 227 226 230 232 233 237 241 231 233 223 219 210 212 203 199 187 172 160 145 134 126 117 100 86 68 57 49 44 41 37 34 34
235 236 239 241 239 237 234 233 233 230 228 224 224 225 227 234 231 236 229 227 210 214 211 210 208 189 191 175 159 147 139 135 122 102 68 58 53 46 38 28 22 23 23
236 236 238 240 238 233 229 228 227 227 226 225 224 223 226 231 232 232 226 235 212 219 226 211 201 196 180 180 171 151 139 134 124 92 73 55 43 30 22 17 13 12 12
238 238 237 238 237 235 234 234 231 227 227 228 211 219 233 229 231 228 225 210 217 224 222 204 201 188 187 183 180 165 149 147 146 118 83 46 26 22 12 7 7 7 6
239 238 238 238 237 236 235 233 228 223 223 218 219 219 219 230 219 218 215 218 228 233 216 203 202 204 194 190 189 185 166 185 177 164 154 56 19 4 1 7 3 5 7
246 241 239 238 237 235 235 234 232 230 229 224 217 220 224 222 226 223 224 232 235 214 208 204 199 204 211 203 200 206 210 199 179 179 194 193 273 353 4 3 6 6 7
248 244 240 237 236 235 234 234 232 233 226 224 221 216 221 222 220 220 229 232 213 208 201 199 197 199 205 213 216 215 208 206 208 197 191 193 191 227 325 356 359 0 2
243 239 239 236 236 236 232 232 230 232 223 220 222 222 215 217 215 216 221 210 207 204 198 199 200 201 202 205 209 212 218 211 215 209 188 183 193 204 222 279 346 351 358